Powrót do katalogu

SL-8 R/B

AktywnyLEO
NORAD 7273·ROCKET BODY·🇷🇺 Russia

Wystrzelony Apr 23, 1974 z Plesetsk Cosmodrome

Loading…

Następne Przeloty (najbliższe 24 godziny)

TLE

ŚwieżeSource: Space-Track

Epoka: Sep 14, 2026, 08:14 UTC

1 07273U 74024J   26257.34329287  .00000025  00000-0  33905-3 0  9996
2 07273  74.0274  26.0954 0076020 237.6726 149.5396 12.30502465353690

Śledź SL-8 R/B w czasie rzeczywistym z AllMySat

Download on the App Store